Location: Harwich
(41.6860°N, 70.0760°W)
Time: 02:48:11
(UTC-04:00)

Daily predictions for brighter satellites

Satellite Brightness Start Highest point End
(mag) Time Altitude Azimuth Time Altitude Azimuth Time Altitude Azimuth
Okean 2 Rocket 4.3 00:05:30 36° WNW 00:05:30 36° WNW 00:09:18 10° N
Cosmos 1980 Rocket 3.9 00:06:32 20° E 00:06:32 20° E 00:09:25 10° NE
Cosmos 2266 Rocket 3.8 00:16:56 76° SW 00:17:23 83° W 00:23:33 10° N
Okean 1 Rocket 4.2 00:22:06 38° NE 00:22:06 38° NE 00:24:58 10° NNE
ISS -0.6 00:21:41 10° NW 00:23:33 14° N 00:25:25 10° NE
Cosmos 2315 Rocket 3.9 00:18:36 10° N 00:24:49 75° E 00:25:09 73° ESE
Cosmos 1371 Rocket 4.2 00:32:35 67° NW 00:32:35 67° NW 00:37:28 10° NNE
Cosmos 1697 Rocket 2.9 00:33:16 58° ENE 00:33:16 58° ENE 00:38:08 10° NNE
Cosmos 2297 Rocket 2.3 00:28:03 10° NNW 00:33:14 66° WNW 00:33:14 66° WNW
Cosmos 1190 Rocket 4.1 00:34:24 10° NNW 00:39:01 70° NNW 00:39:01 70° NNW
ALOS 2 4.2 00:49:15 28° WNW 00:49:15 28° WNW 00:51:55 10° NNW
SL-16 R/B 4.2 00:48:31 16° E 00:48:31 16° E 00:51:26 10° ENE
CZ-4C R/B 3.4 00:42:07 10° NNW 00:49:05 55° NE 00:52:58 30° ESE
Cosmos 676 Rocket 4.2 00:45:03 10° NNW 00:49:57 64° NE 00:49:57 64° NE
Cosmos 1025 Rocket 4.0 00:47:15 10° N 00:50:17 44° N 00:50:17 44° N
BREEZE-M (TANK) 3.8 00:48:50 10° WNW 00:55:07 43° N 00:55:07 43° N
USA 229 DEB 3.6 00:54:44 69° SW 00:55:40 85° NW 01:02:40 10° NE
USA 229 3.6 00:54:51 70° SW 00:55:45 86° WNW 01:02:45 10° NE
Cosmos 2322 Rocket 4.0 00:56:46 20° E 00:56:46 20° E 01:00:21 10° NE
Cosmos 2082 4.5 00:52:03 10° NW 00:56:36 40° W 00:56:36 40° W
Cosmos 1244 Rocket 4.3 01:00:32 78° SW 01:00:52 82° W 01:07:09 10° N
NOSS 3-1 (A) 4.3 01:02:34 34° E 01:02:34 34° E 01:07:29 10° NE
Cosmos 407 Rocket 3.9 00:57:00 10° NNW 01:01:29 57° WNW 01:01:29 57° WNW
H-2A R/B 4.3 00:59:02 10° NNE 01:01:05 23° ENE 01:01:05 23° ENE
Cosmos 1140 Rocket 3.8 01:00:32 10° NNW 01:05:28 61° NE 01:05:28 61° NE
Cosmos 921 Rocket 4.2 01:16:36 37° NNW 01:16:36 37° NNW 01:19:40 10° N
Cosmos 2227 4.5 01:10:35 10° NNW 01:16:09 59° ENE 01:16:43 56° E
Cosmos 1238 Rocket 3.6 01:11:32 10° N 01:16:44 87° NNW 01:16:44 87° NNW
BREEZE M DEB (TANK) 4.0 01:18:13 58° E 01:18:13 58° E 01:21:03 10° ENE
Nadezhda 1 Rocket 4.0 01:14:31 10° N 01:20:37 67° E 01:21:19 62° ESE
Cosmos 1892 Rocket 4.3 01:16:36 10° N 01:20:04 52° N 01:20:04 52° N
CZ-2C R/B 4.5 01:18:36 10° NNW 01:22:10 19° WNW 01:23:17 18° W
Cosmos 2227 Rocket 3.9 01:18:22 10° NW 01:21:18 20° W 01:21:18 20° W
Cosmos 1066 Rocket 4.1 01:19:46 10° N 01:25:07 71° ENE 01:25:07 71° ENE
CZ-4B R/B 3.8 01:28:01 22° NNW 01:28:01 22° NNW 01:29:25 10° NNW
Cosmos 1954 Rocket 4.3 01:25:49 10° NNW 01:30:15 58° WNW 01:30:15 58° WNW
CZ-2D R/B 4.5 01:33:48 10° ENE 01:36:09 13° E 01:38:00 11° ESE
Mayak 0.8 01:34:04 10° NNW 01:36:40 20° WNW 01:36:40 20° WNW
Cosmos 2263 Rocket 3.5 01:34:53 10° N 01:40:06 35° ENE 01:43:23 20° ESE
Cosmos 1386 Rocket 4.2 01:39:52 76° SSE 01:40:20 84° E 01:46:25 10° N
Cosmos 1626 Rocket 4.5 01:37:10 10° N 01:41:01 43° ENE 01:41:01 43° ENE
NOSS 3-1 (C) 3.2 01:45:01 73° WSW 01:45:36 83° NW 01:52:06 10° NE
SL-16 R/B 4.3 01:41:56 10° ESE 01:47:00 27° ENE 01:52:06 10° N
Cosmos 2360 Rocket 3.9 01:47:14 20° ESE 01:48:03 21° E 01:52:10 10° NE
Cosmos 1980 Rocket 2.5 01:48:17 51° W 01:48:48 53° WNW 01:54:19 10° NNE
Cosmos 1461 3.6 01:45:09 10° NNW 01:48:34 53° NNW 01:48:34 53° NNW
Cosmos 1544 Rocket 4.3 01:53:00 47° NW 01:53:00 47° NW 01:56:32 10° N
Cosmos 1452 Rocket 4.2 01:53:21 42° WNW 01:53:36 43° WNW 01:58:39 10° N
BREEZE-M DEB (TANK) 4.1 01:52:59 23° NNW 01:53:47 25° N 01:58:21 10° ENE
Cosmos 1743 3.9 01:55:02 43° N 01:55:02 43° N 01:57:42 10° N
Cosmos 1745 Rocket 4.2 01:58:16 52° WSW 01:58:57 55° W 02:05:00 10° N
ISS -1.4 01:58:11 10° NW 02:00:53 23° NNE 02:03:35 10° ENE
USA 81 3.9 01:55:46 10° N 02:01:03 82° W 02:01:07 82° WSW
Cosmos 2181 Rocket 4.3 01:56:01 10° N 02:02:23 62° E 02:04:33 41° SE
Cosmos 1850 Rocket 4.0 01:59:19 10° NNW 02:04:27 70° W 02:04:27 70° W
Cosmos 1455 Rocket 4.0 02:09:22 38° NW 02:09:22 38° NW 02:12:49 10° N
Cosmos 1697 Rocket 4.5 02:14:58 17° W 02:17:01 21° NW 02:21:13 10° N
Cosmos 1437 Rocket 3.2 02:18:54 62° N 02:18:54 62° N 02:22:25 10° N
Cosmos 1110 Rocket 4.0 02:18:27 63° SE 02:18:55 67° ESE 02:24:04 10° NNE
PSLV R/B 4.1 02:21:26 68° NNW 02:21:26 68° NNW 02:25:10 10° NNW
USA 234 3.2 02:15:00 10° NE 02:21:35 90° SSE 02:23:39 48° SW
Meteor 1-21 4.1 02:21:42 10° NNW 02:27:16 71° W 02:27:58 63° SW
Meteor 1-4 Rocket 3.8 02:30:33 34° E 02:30:33 34° E 02:33:31 10° NNE
SL-16 R/B 2.2 02:30:23 56° WSW 02:31:25 68° WNW 02:37:06 10° NNE
Cosmos 2074 Rocket 4.4 02:30:51 34° SSE 02:33:25 57° E 02:39:35 10° NNE
Meteor 2-9 Rocket 4.2 02:35:18 55° SSW 02:36:38 82° W 02:42:33 10° N
CZ-4C R/B 3.4 02:30:58 10° NW 02:37:37 38° WSW 02:38:04 37° WSW
H-2A R/B 4.3 02:35:04 10° NNW 02:37:42 19° WNW 02:37:42 19° WNW
Cosmos 2322 Rocket 2.4 02:38:35 47° WSW 02:39:51 58° WNW 02:45:30 10° NNE
ADEOS Rocket 2.8 02:33:49 10° NNE 02:40:07 89° ESE 02:41:50 49° SSW
Cosmos 1602 Rocket 4.4 02:38:40 10° NNW 02:42:12 37° WNW 02:42:12 37° WNW
SL-08 R/B 3.1 02:43:23 70° SSW 02:43:48 77° WSW 02:48:25 10° NNW
Cosmos 44 3.3 02:42:06 10° NNW 02:46:27 67° NE 02:48:56 25° SE
ATLAS 2AS CENTAUR R/B 3.6 02:43:39 30° S 02:47:12 48° ESE 02:54:53 10° NE
Uosat 12 SS-18 rocket 4.4 02:47:01 56° S 02:47:52 69° ESE 02:53:26 10° NE
BREEZE-M DEB (TANK) 4.1 02:49:09 18° ESE 02:49:09 18° ESE 02:50:46 10° E
ARIANE 5 R/B 3.2 02:44:20 10° NNE 02:49:20 49° E 02:51:21 32° SSE
Cosmos 1666 4.4 02:51:40 23° WNW 02:51:40 23° WNW 02:54:16 10° NNW
Helios 1A Rocket 3.8 02:47:51 10° N 02:51:30 36° WNW 02:51:30 36° WNW
COBE Rocket 4.1 02:47:08 10° N 02:52:17 66° WNW 02:53:26 51° SW
NOSS 3-1 (A) 4.2 02:50:00 28° W 02:52:33 43° NW 02:58:49 10° NNE
Resurs 1-4 Rocket 2.3 02:48:15 10° NNE 02:53:31 63° ESE 02:55:27 38° SSE
IRS-1C 4.0 02:51:10 10° NNE 02:56:33 84° WNW 02:58:10 47° SSW
NOSS 2-3 (E) 4.0 02:58:23 49° S 02:59:31 67° ESE 03:04:53 10° NE
H-2A R/B 4.2 02:16:24 10° W 02:59:45 52° SSW 03:06:19 10° SE
Cosmos 1331 Rocket 4.1 02:58:37 47° WSW 02:59:48 60° WNW 03:04:55 10° NNE
Cosmos 1726 Rocket 3.6 03:00:47 51° SSE 03:01:49 76° E 03:06:15 10° N
AQUA 3.9 02:57:17 10° N 03:02:00 61° WNW 03:03:00 49° WSW
ERS-1 4.5 02:58:09 10° NNE 03:03:14 80° ESE 03:04:59 42° S
SL-8 R/B 3.6 03:05:51 52° SW 03:06:57 75° SSE 03:11:47 10° ENE
Cosmos 2237 4.4 03:11:16 33° S 03:13:49 68° ESE 03:19:29 10° NNE
Cosmos 1340 Rocket 4.5 03:11:16 10° N 03:14:51 32° ENE 03:18:24 10° SE
NPP 4.3 03:10:25 10° N 03:15:27 42° WNW 03:17:13 32° WSW
Cosmos 1606 Rocket 3.6 03:15:26 48° SW 03:16:23 61° W 03:20:49 10° N
MOS 1 Rocket 3.4 03:11:57 10° NNE 03:16:27 64° E 03:18:18 33° S
CZ-2D R/B 2.1 03:11:20 10° NNE 03:16:51 83° WNW 03:19:20 34° SSW
ATLAS 3B R/B 3.6 03:11:28 10° NNW 03:18:00 48° NE 03:24:16 10° ESE
Cosmos 389 Rocket 4.4 03:17:42 16° SE 03:19:40 26° E 03:22:42 10° NE
UNK 3.8 03:19:05 41° SSW 03:20:28 58° W 03:25:03 10° NNW
Cosmos 1486 Rocket 3.9 03:15:59 10° NNW 03:21:17 73° WSW 03:24:38 23° S
DELTA 2 R/B (1) 3.7 03:19:49 37° SW 03:21:48 57° SSE 03:27:15 10° E
Cosmos 2263 Rocket 2.8 03:18:53 10° NW 03:23:58 34° WSW 03:25:00 32° SW
Cosmos 1271 Rocket 3.2 03:24:17 29° SSE 03:26:05 58° E 03:30:02 10° NNE
Aureole 2 Rocket 4.4 03:23:53 17° SSE 03:26:20 30° ESE 03:29:53 10° NE
CBERS 1 LM4 rocket 4.4 03:23:41 10° N 03:28:25 67° WNW 03:30:28 34° SW
SL-16 R/B 2.7 03:26:51 26° SSW 03:30:15 53° W 03:36:23 10° NNW
Cosmos 2360 Rocket 2.5 03:29:01 31° SW 03:31:34 55° WNW 03:37:08 10° NNE
Cosmos 44 Rocket 3.6 03:27:38 10° NW 03:32:04 40° WSW 03:33:18 34° SSW
UNKNOWN OBJECT B 3.0 03:28:25 10° NNE 03:32:14 66° E 03:34:04 29° S
Lacrosse 5 rocket 3.8 03:29:12 10° NNW 03:32:29 24° NNE 03:35:54 10° E
NOSS 2-3 (C) 4.0 03:30:39 33° SW 03:32:45 67° NW 03:38:16 10° NNE
Cosmos 1354 Rocket 4.1 03:29:15 10° NNW 03:34:34 78° ENE 03:39:52 10° SSE
Cosmos 2219 Rocket 3.1 03:31:08 16° S 03:35:20 43° ESE 03:40:41 10° NE
COSMOS 2428 2.8 03:34:05 25° SSW 03:37:32 77° ESE 03:43:17 10° NNE
ISS -4.0 03:34:21 10° WNW 03:37:36 64° SW 03:40:50 10° SE
Iridium 4 Rocket 3.9 03:35:51 27° SSW 03:39:00 58° W 03:44:34 10° N
Cosmos 2237 Rocket 4.0 03:35:22 10° SSE 03:39:53 26° ESE 03:44:26 10° NE
Cosmos 1758 Rocket 4.2 03:37:02 10° NNW 03:41:01 36° W 03:42:06 31° WSW
USA 238 DEB 4.5 03:34:46 10° NNW 03:41:46 58° NE 03:48:46 10° SE
USA 238 4.5 03:34:52 10° NNW 03:41:52 57° NE 03:48:52 10° SE
Cosmos 1932 4.5 03:36:24 10° NNW 03:42:57 86° WSW 03:49:20 10° SSE
Cosmos 1844 Rocket 2.9 03:38:43 10° NNW 03:44:25 76° ENE 03:50:05 10° SSE
Cosmos 2228 3.4 03:50:08 28° SW 03:51:57 46° WNW 03:56:06 10° N
Cosmos 1544 3.9 03:49:51 14° SSE 03:52:53 49° E 03:56:30 10° NNE
Cosmos 2333 Rocket 2.8 03:51:27 13° S 03:56:26 52° ESE 04:01:57 10° NNE
Cosmos 2322 4.4 03:54:10 21° WSW 03:57:28 42° WNW 04:02:50 10° NNE
ADEOS 4.1 03:53:21 10° N 03:58:18 44° WNW 04:01:27 21° SW
IRS-1D 4.5 03:57:45 10° N 04:02:05 31° WNW 04:04:48 19° WSW
Meteor 2-5 Rocket 4.0 03:57:54 10° NNW 04:03:20 49° W 04:08:27 12° SSW
USA 234 4.4 03:58:19 10° NE 04:04:08 35° NNW 04:09:56 10° W
Meteor 1-24 Rocket 3.6 04:02:30 10° NNW 04:07:53 73° W 04:13:26 10° S
BREEZE-M DEB (TANK) 4.0 04:06:24 10° NW 04:09:02 20° N 04:10:54 10° NE
Cosmos 972 4.4 04:06:28 13° SSW 04:10:49 84° ESE 04:15:43 10° NNE
Cosmos 2278 Rocket 3.2 04:05:32 10° NNW 04:11:03 50° ENE 04:16:33 10° SE
Cosmos 1707 4.0 04:08:22 10° NW 04:11:26 23° W 04:12:42 19° WSW
Cosmos 972 Rocket 4.3 04:08:18 19° SW 04:11:32 48° WNW 04:16:23 10° N
Cosmos 1503 Rocket 4.3 04:08:30 10° NNW 04:13:35 47° WSW 04:18:41 10° S
Cosmos 1378 4.3 04:11:08 10° NW 04:14:14 25° W 04:15:46 19° SW
Nadezhda 3 Rocket 4.3 04:08:51 10° NNW 04:14:47 47° W 04:20:44 10° SSW
SL-16 R/B 4.4 04:14:22 10° WNW 04:16:39 12° NW 04:18:56 10° NNW
Cosmos 1766 3.5 04:14:24 17° SSW 04:17:15 53° W 04:21:08 10° N
Cosmos 2058 Rocket 4.5 04:15:38 16° WSW 04:17:55 23° WNW 04:21:33 10° NNW
Intercosmos 24 4.4 04:15:17 17° SSW 04:18:05 50° WNW 04:23:01 10° N
ERBS 3.8 04:17:13 12° S 04:20:00 29° SE 04:23:03 10° ENE
SL-8 Rocket 4.1 04:14:15 10° S 04:20:34 89° W 04:26:56 10° N
GENESIS II 4.2 04:18:21 10° NW 04:22:13 55° WSW 04:26:00 10° SSE
OAO 3 Rocket 3.9 04:21:51 14° WSW 04:25:27 37° S 04:29:57 10° ESE
SL-16 R/B 4.1 04:22:17 10° SSE 04:26:55 26° ESE 04:31:32 10° NE
ARIANE 5 R/B 4.0 04:24:16 10° NNW 04:28:06 22° WNW 04:31:41 11° WSW
ATLAS CENTAUR R/B 3.4 04:22:51 10° NW 04:28:22 37° NNE 04:30:56 10° E
Cosmos 1812 Rocket 3.7 04:24:16 11° SSW 04:28:22 57° W 04:32:40 10° N
ADEOS II 2.2 04:25:50 10° NNE 04:31:07 85° E 04:36:23 10° SSW
Resurs 1-4 Rocket 3.8 04:29:22 10° NNW 04:32:49 18° WNW 04:36:15 10° WSW
Cosmos 1992 Rocket 4.4 04:29:41 13° SW 04:34:12 46° WNW 04:39:14 10° N
Cosmos 1844 3.8 04:29:51 10° NNW 04:35:19 55° WSW 04:40:49 10° S
Okean O Rocket 2.0 04:30:57 10° NNE 04:35:25 66° ESE 04:39:50 10° S
Abrixas rocket 3.4 04:34:28 11° SSW 04:37:19 32° SE 04:40:21 10° ENE
Okean 3 Rocket 3.7 04:33:36 10° N 04:38:03 80° E 04:42:31 10° S
ATLAS 2AS CENTAUR R/B 3.7 04:31:06 11° WSW 04:38:19 46° NW 04:46:08 10° NNE
MOS 1-B 4.4 04:32:55 10° N 04:38:42 67° WNW 04:44:27 10° SSW
Lacrosse 5 3.4 04:34:39 10° S 04:39:03 30° SE 04:43:27 10° ENE
Cosmos 1674 2.9 04:36:00 10° N 04:39:51 75° E 04:43:42 10° SSE
NOSS 0 Rocket 4.0 04:34:22 10° SSW 04:40:33 85° WNW 04:46:49 10° NNE
BREEZE M DEB (TANK) 4.5 04:39:23 10° NW 04:42:11 36° NNE 04:49:33 10° E
USA 161 2.6 04:40:41 10° SSW 04:43:18 27° W 04:45:53 10° NW
NOSS 3-4 (A) 4.1 04:39:40 10° SSW 04:45:47 57° ESE 04:52:06 10° NE
NOSS 3-4 (C) 4.1 04:39:45 10° SSW 04:45:52 56° ESE 04:52:11 10° NE
Cosmos 1727 Rocket 4.1 04:41:09 10° N 04:47:24 88° E 04:53:34 10° S
Landsat 4 3.7 04:44:41 10° SSE 04:48:25 88° WSW 04:52:10 10° NNW
Cosmos 1076 Rocket 3.6 04:45:00 10° N 04:49:15 79° E 04:53:30 10° S
Cosmos 1340 Rocket 4.4 04:48:25 10° NW 04:51:03 17° W 04:53:40 10° SW
Cosmos 1805 3.9 04:47:46 10° SSW 04:51:25 38° WNW 04:55:06 10° N
Cosmos 1766 Rocket 4.4 04:48:16 10° N 04:52:41 56° E 04:57:03 10° SSE
Cosmos 389 Rocket 4.3 04:52:07 10° WSW 04:54:32 17° WNW 04:57:00 10° NNW
CZ-2D R/B 4.2 04:53:54 10° NW 04:56:02 12° WNW 04:58:10 10° W
KORONAS-FOTON 4.0 04:53:32 10° N 04:57:30 83° E 05:01:26 10° S
Cosmos 2366 rocket 4.1 04:54:51 10° SSW 05:00:54 59° W 05:07:03 10° N
Meteor 1-21 Rocket 4.3 04:55:47 10° NNW 05:01:32 71° W 05:07:21 10° S
